Theta_e
331 330 329 327 327 326 325 325 325 324 324 323 323 322 321 320 321 322 322 322 321 321 321 319 318 316 314 313 313 314 313 312 312 311 311 312 312 313 316 319 323 328 330 331 333 333 332 332 331 331 331 332 332 331 332 332 332 332 333 333 334 333 332 331 329 328 327 327 327 326 326 326 326 325 325 325 325 324 324 323 323 323 323 323 323
331 330 329 327 326 326 324 325 325 325 323 323 324 322 321 319 319 320 321 321 321 321 320 318 318 317 314 313 313 314 314 313 313 312 313 313 312 312 315 317 320 324 328 330 332 332 333 332 332 332 332 332 332 332 331 332 333 333 332 333 333 334 333 332 331 329 328 327 327 327 326 326 326 325 325 325 325 324 323 322 322 323 323 323 323
332 331 330 328 326 326 324 325 325 325 324 323 323 323 322 320 319 319 318 318 319 320 318 318 317 315 313 312 313 313 313 313 313 313 313 314 313 313 313 316 318 321 325 329 331 332 332 333 333 332 332 332 332 332 332 332 331 332 333 333 334 333 334 333 332 331 329 328 327 327 327 326 326 326 325 325 325 324 323 322 322 323 323 323 323
331 331 331 330 329 327 326 325 325 326 325 325 324 323 322 321 320 318 317 317 317 317 316 315 314 313 312 312 313 313 314 313 313 314 314 314 314 314 313 314 316 318 321 325 329 331 332 332 333 333 333 332 333 332 332 332 331 331 331 331 332 333 334 333 333 332 330 329 328 327 326 326 326 326 326 325 325 324 323 323 323 323 323 323 323
330 330 329 330 330 329 328 327 327 326 326 325 325 324 323 321 320 318 317 315 314 313 311 312 312 313 312 313 313 314 314 313 314 314 314 314 315 314 314 314 313 315 317 319 323 328 331 332 332 333 334 333 333 333 332 332 331 332 331 332 331 332 333 334 333 332 332 331 330 328 327 326 326 326 325 325 324 324 323 323 323 323 323 323 323
329 329 329 329 329 329 329 328 328 327 326 325 325 324 323 322 321 320 317 316 316 316 315 313 313 313 313 313 311 313 314 314 314 314 314 314 315 314 315 314 314 313 313 316 319 322 327 330 332 332 333 334 334 333 332 332 332 332 332 333 332 333 333 333 334 333 332 332 331 330 328 327 326 326 325 324 324 324 324 323 324 324 323 323 323
329 328 328 328 328 328 328 329 329 328 326 325 325 325 324 323 322 319 318 316 316 316 316 315 314 313 313 313 313 313 313 313 314 314 314 315 314 314 314 315 315 314 314 314 315 317 321 326 330 332 333 334 334 334 333 332 332 332 332 332 332 333 332 332 333 334 333 333 332 331 330 329 327 327 326 325 324 324 324 324 324 323 323 323 323
327 328 327 327 327 327 327 328 328 328 326 325 324 324 324 323 322 320 317 316 316 316 316 315 315 314 313 312 313 312 313 313 313 313 314 314 314 314 314 314 315 315 314 315 315 315 317 321 325 330 331 333 334 335 335 334 333 333 332 332 333 332 332 332 333 333 333 333 332 331 331 329 328 328 327 326 324 324 323 324 323 323 323 323 323
325 326 326 326 326 326 327 328 328 327 326 325 324 323 323 322 321 320 320 319 318 317 316 315 315 314 313 312 313 312 313 314 314 314 315 314 314 314 314 314 314 312 315 315 315 315 315 317 321 324 326 328 332 334 335 335 334 334 334 333 333 333 332 332 332 333 333 333 332 331 330 330 329 329 328 327 325 324 324 324 324 324 323 323 323
324 325 326 326 326 325 326 327 327 327 326 325 324 324 323 323 322 321 319 319 319 318 317 316 314 313 312 312 312 312 313 314 314 313 314 314 314 314 315 315 315 315 315 315 315 315 315 316 317 318 319 321 326 331 334 334 335 335 334 334 334 334 334 333 332 333 333 334 333 331 331 330 330 330 328 327 325 324 324 324 324 323 323 324 323
323 323 324 324 324 325 325 326 326 326 325 324 324 323 322 322 322 322 320 319 320 320 319 317 315 314 314 314 314 314 315 315 315 315 314 314 315 315 316 315 315 315 315 315 315 315 315 315 315 315 316 316 321 326 329 333 334 334 335 334 334 334 335 334 333 333 333 333 333 333 332 331 330 329 328 326 325 324 324 324 324 324 323 324 324
323 323 323 323 323 324 324 325 326 325 324 323 323 323 322 321 320 320 320 317 317 318 317 315 315 315 314 315 316 316 316 316 316 316 316 316 316 315 315 315 314 315 315 315 315 314 314 315 313 314 315 315 317 319 323 327 328 332 335 335 335 334 334 334 334 333 334 334 333 334 333 332 331 330 329 327 326 325 325 325 325 325 324 324 324
322 323 323 321 323 323 322 322 323 324 324 323 324 324 324 322 321 319 318 319 318 316 317 315 315 314 316 316 317 318 317 316 316 317 316 317 316 315 315 314 314 313 314 314 314 314 314 314 314 314 314 314 315 315 317 321 322 328 332 334 335 335 334 334 334 334 333 333 334 334 333 333 331 331 330 330 329 328 328 326 327 326 326 325 325
321 322 322 323 322 322 322 321 321 322 322 323 324 321 323 321 321 319 318 318 319 318 315 315 312 311 311 312 313 314 314 314 314 315 316 316 315 314 314 313 313 313 313 312 312 312 313 314 314 314 314 314 315 315 315 316 318 323 328 333 334 335 335 335 334 333 333 333 333 334 333 333 332 331 332 330 329 329 328 328 327 327 327 326 325
323 321 322 322 323 322 322 322 321 320 320 321 322 322 322 321 320 319 318 316 317 316 316 317 315 310 311 308 308 300 300 301 305 309 313 313 313 312 312 312 312 313 312 311 311 311 312 313 313 313 314 314 314 315 315 314 315 317 323 327 329 335 336 335 335 334 333 333 333 334 333 332 332 332 332 331 330 329 329 329 328 328 328 327 327
322 322 321 322 322 322 322 322 321 321 320 319 319 320 321 321 321 319 320 317 315 314 316 316 317 312 307 308 305 298 302 298 294 301 305 310 311 310 311 311 312 311 310 311 312 312 312 312 312 313 313 314 314 314 314 315 316 318 318 319 321 328 333 335 335 335 333 333 333 334 334 333 332 332 332 332 332 331 330 329 329 328 328 328 327
323 322 321 322 322 322 322 322 321 321 320 319 319 319 319 320 320 319 318 318 317 317 313 316 316 318 314 302 301 298 301 299 297 301 298 302 304 309 309 310 311 310 310 311 311 312 312 312 312 312 313 313 313 313 314 314 315 313 315 314 317 323 327 332 334 335 334 333 333 333 334 333 333 333 332 332 331 332 331 330 329 328 328 328 327
322 322 322 321 321 322 322 322 321 321 320 320 319 319 318 318 319 319 318 319 318 316 315 312 316 316 318 317 310 303 297 294 301 301 300 301 302 301 305 308 308 308 309 309 310 311 310 312 312 312 312 313 313 313 313 314 313 314 314 316 320 321 324 327 332 334 334 333 333 332 333 332 332 332 331 331 331 330 330 331 329 328 328 328 328
322 322 322 321 321 321 321 321 321 321 320 320 319 319 319 318 318 318 318 317 317 315 315 314 310 314 316 317 315 312 303 303 303 297 303 302 299 299 303 302 304 305 307 308 309 309 311 310 311 312 312 312 313 313 313 313 315 315 318 319 322 323 324 325 326 330 333 334 333 332 332 332 332 332 331 331 331 330 330 330 329 329 329 328 328
322 322 322 321 321 321 321 321 320 321 320 320 320 320 319 319 317 318 318 317 316 315 315 315 311 311 314 314 314 315 314 310 305 306 302 303 307 299 297 298 299 303 306 307 307 308 309 309 310 311 311 312 312 312 313 313 313 314 315 319 322 323 325 326 326 327 329 332 333 332 333 332 332 332 332 331 331 330 330 330 330 330 330 329 329
321 321 321 322 320 320 320 320 320 320 318 320 320 320 319 318 317 316 316 316 316 316 315 314 314 313 310 311 314 313 314 314 313 308 307 305 306 307 307 302 299 302 302 304 306 307 308 309 309 309 309 310 311 311 312 312 313 313 315 318 322 324 326 326 326 326 327 328 329 331 332 333 332 333 332 331 330 330 330 330 330 330 330 328 330
320 321 321 321 321 320 320 320 320 320 318 319 319 319 319 318 318 317 317 316 316 316 315 315 315 315 313 311 310 311 312 311 312 311 309 309 306 306 308 304 305 303 299 301 303 305 307 308 308 308 308 309 310 310 311 312 312 312 312 313 317 321 325 326 327 327 327 327 327 327 329 331 332 332 332 331 330 330 330 330 330 330 329 330 330
319 319 320 321 321 320 320 320 320 319 317 318 318 319 319 318 318 317 316 316 316 316 314 314 315 314 313 313 312 311 310 309 310 311 310 307 306 307 309 309 307 308 305 306 306 306 306 307 308 308 309 309 310 310 310 311 308 309 308 310 313 317 320 325 327 327 328 328 327 327 327 328 329 331 331 331 330 329 330 330 330 330 330 331 330
319 318 319 320 320 320 319 320 319 319 319 319 319 319 319 318 318 317 317 317 316 315 315 314 314 314 314 314 313 313 312 311 311 311 311 310 309 307 306 303 300 305 304 301 301 304 305 305 307 308 309 309 310 310 310 310 310 306 307 308 311 316 320 324 326 327 328 328 328 328 328 327 328 328 329 330 330 331 329 329 329 329 329 329 329
318 318 319 319 319 319 319 319 319 319 319 319 319 319 319 318 318 317 317 316 316 316 315 315 315 314 314 315 315 314 313 313 311 309 310 310 310 307 308 303 306 307 304 298 303 296 303 306 307 308 308 309 309 309 309 309 310 307 303 307 308 311 314 318 323 326 327 327 328 329 329 328 329 329 328 328 329 330 330 330 329 329 329 330 330
318 318 320 320 319 319 319 319 320 320 319 319 319 319 318 318 317 317 316 317 317 316 316 316 316 315 316 314 314 314 314 314 313 311 310 308 308 308 307 302 300 305 305 299 298 304 305 302 307 307 307 308 308 309 309 310 310 304 302 305 309 308 311 314 318 322 326 327 327 328 328 328 329 329 328 329 329 329 330 330 329 329 328 328 329
319 320 320 319 319 319 319 319 319 319 319 318 318 318 318 318 317 317 317 317 317 316 316 316 315 315 315 315 314 314 314 314 314 313 312 311 310 309 306 305 305 302 303 300 299 303 308 300 301 305 307 307 308 309 309 308 306 304 301 305 308 306 308 313 317 320 322 325 326 327 327 327 328 328 327 327 328 328 328 328 328 328 329 328 328
319 319 319 319 319 319 318 318 319 319 319 319 318 318 318 318 317 317 316 317 317 316 316 316 315 315 315 315 315 314 315 314 314 314 314 313 312 311 308 308 305 304 304 304 301 306 303 305 297 303 306 307 307 307 305 306 308 304 300 306 307 306 306 309 315 318 319 321 323 324 325 326 327 327 327 326 325 325 326 326 326 326 326 326 326
320 319 319 319 319 319 318 318 318 319 319 318 318 318 318 317 317 317 316 317 316 316 316 315 316 316 315 315 315 315 315 315 314 314 315 314 314 313 312 310 310 306 304 304 306 305 300 303 300 296 303 305 306 306 306 306 305 305 306 305 306 306 306 307 312 315 316 318 321 323 323 325 325 326 326 326 325 325 325 324 323 323 325 325 326
320 320 319 318 318 315 318 318 318 318 318 318 318 318 317 317 317 317 317 317 316 316 316 316 316 316 315 315 315 314 315 315 315 315 314 314 314 313 313 313 312 309 308 305 306 309 309 298 303 301 298 302 305 305 305 306 303 304 304 305 305 306 305 306 308 311 312 314 317 319 321 323 324 325 325 325 325 325 325 325 324 324 325 325 325
319 319 318 318 318 317 317 317 318 317 318 318 318 317 317 317 316 316 317 317 316 315 316 315 316 315 314 314 315 315 315 315 315 315 314 314 314 314 313 314 312 312 310 309 305 310 313 311 309 304 305 301 303 304 303 305 304 304 304 304 305 302 301 303 303 307 310 314 315 317 319 322 323 324 324 325 326 325 325 325 324 324 324 324 324
320 319 318 318 317 317 317 317 317 317 317 317 317 317 317 317 317 316 316 316 316 315 316 316 316 315 315 314 314 315 316 316 315 315 315 314 314 314 314 313 313 313 312 310 307 307 313 313 313 308 305 306 303 304 305 306 306 300 306 306 305 300 302 304 302 303 306 310 311 313 315 317 319 322 323 324 325 325 325 324 324 324 323 323 322
319 319 318 318 318 317 317 316 317 317 316 316 317 317 316 316 317 317 316 316 315 316 315 315 316 316 315 315 315 316 316 315 315 315 315 315 314 314 314 314 313 313 312 310 307 307 311 314 313 314 312 306 305 306 307 307 306 304 302 305 304 304 304 304 304 301 302 304 307 310 312 313 314 317 319 321 322 323 323 323 324 323 321 319 318
319 319 318 318 318 318 317 317 316 317 317 317 316 316 316 316 316 316 316 315 315 315 315 315 316 316 316 315 315 316 316 315 315 315 315 315 315 314 313 313 313 313 313 311 309 308 307 311 312 310 312 307 310 306 308 307 308 305 304 305 304 304 305 305 304 304 302 303 305 307 309 310 310 311 312 313 317 318 320 321 318 316 315 314 312
318 319 319 318 318 317 317 317 317 316 316 316 316 316 316 315 315 315 316 315 315 314 315 315 315 316 315 315 315 316 316 315 314 315 315 315 315 314 313 313 312 313 313 313 311 308 307 309 312 311 310 306 308 309 306 309 311 310 308 308 308 306 304 304 304 303 302 303 305 306 307 308 308 309 309 309 310 311 312 313 313 311 310 310 310
318 317 318 318 317 317 316 316 316 316 316 316 315 315 316 315 315 315 315 315 315 315 315 315 315 315 315 314 314 315 315 314 314 314 314 314 314 313 312 312 312 312 312 312 312 311 310 308 310 311 310 310 308 307 308 308 308 307 308 309 308 307 306 304 303 304 303 303 304 304 305 306 306 307 308 308 308 308 309 309 309 308 308 307 307
316 315 314 315 316 316 316 315 315 315 315 315 315 315 315 315 315 315 315 314 314 314 314 315 309 315 314 314 314 314 314 313 313 313 313 312 313 312 312 312 312 312 312 312 312 311 310 309 309 311 311 309 310 306 305 306 303 302 300 303 305 306 306 305 302 303 300 301 301 302 302 303 304 305 306 307 307 306 307 306 305 305 304 304 304
314 314 314 312 313 315 315 315 315 315 315 314 314 315 315 314 314 314 314 313 313 313 313 314 314 314 314 314 314 314 314 313 313 313 313 312 312 311 311 311 312 312 311 311 311 310 310 310 310 310 309 310 304 303 302 305 305 302 298 301 297 299 300 299 300 302 302 302 302 302 300 301 302 302 304 305 305 305 305 304 303 303 302 302 303
311 311 310 311 310 312 314 314 314 314 314 313 314 314 314 314 314 313 313 313 312 313 313 313 314 314 314 314 314 314 314 314 313 313 312 312 312 311 311 311 311 311 311 311 310 310 310 309 309 310 310 310 310 309 304 303 305 306 306 303 299 298 296 299 301 302 301 301 300 299 300 300 299 299 301 302 303 303 303 303 302 301 300 300 301
307 308 309 310 309 308 311 312 313 313 312 312 312 313 313 313 312 312 312 311 312 312 312 313 313 313 313 314 314 314 314 314 314 313 313 312 312 311 312 311 311 311 311 310 310 309 309 309 308 308 308 308 305 302 292 293 295 295 295 299 302 301 299 297 299 302 303 299 300 300 298 297 297 297 298 300 300 301 301 300 300 299 298 299 300
304 305 307 308 307 307 307 308 309 309 310 311 311 310 311 311 312 312 313 312 312 312 312 312 313 313 313 313 313 314 311 304 303 305 306 307 313 311 311 311 310 310 310 310 309 309 308 308 307 307 306 305 306 304 300 297 298 304 300 297 299 299 301 299 298 297 301 299 298 297 298 298 297 297 296 296 298 298 298 298 298 297 297 299 300
300 300 301 303 305 306 306 305 305 307 308 310 304 303 304 310 312 313 313 312 312 311 311 311 311 312 312 313 312 302 300 299 299 299 300 300 302 310 313 312 310 310 309 308 308 308 308 306 307 307 306 306 306 305 305 305 303 297 296 293 297 297 295 298 298 296 296 295 296 296 297 297 296 296 295 295 297 295 297 297 298 297 297 300 300
296 297 298 301 301 301 303 304 304 304 306 307 301 302 302 303 309 313 313 313 312 311 311 310 310 310 311 312 312 305 300 298 299 298 299 300 299 299 301 303 304 311 310 308 308 308 306 306 307 306 306 306 307 305 304 305 301 299 299 297 299 297 297 297 298 294 295 297 295 295 297 297 296 296 296 296 296 294 294 295 297 297 298 299 300
295 293 296 299 301 299 300 300 301 302 302 299 301 302 302 302 301 309 313 313 312 312 311 310 310 310 310 310 311 311 311 309 309 306 300 298 298 299 299 299 300 300 302 308 306 305 306 305 305 306 306 306 307 305 304 297 298 296 296 297 298 298 297 296 297 299 296 296 297 296 299 296 295 296 297 296 295 294 293 295 297 298 299 299 299
293 296 299 299 300 299 299 301 301 301 301 299 298 299 299 300 300 301 310 312 312 311 310 310 310 310 310 309 309 310 312 299 301 308 309 306 297 296 297 297 297 298 300 301 302 307 311 308 307 306 307 306 304 303 301 299 301 300 298 297 296 296 298 298 299 299 298 294 297 295 297 295 295 294 295 296 295 294 293 295 297 298 299 299 299
294 296 295 296 297 297 298 299 299 299 299 297 297 297 297 298 299 299 306 309 310 310 310 310 309 309 309 309 309 308 309 308 308 309 310 310 309 304 302 301 303 300 296 297 298 297 299 307 309 308 308 306 306 305 302 301 301 299 298 299 297 297 297 298 301 301 292 294 297 295 296 293 292 295 295 296 294 293 292 295 298 299 299 299 298
295 296 296 295 297 297 297 298 299 299 301 296 296 297 297 297 298 298 304 306 306 307 308 308 308 308 308 309 308 308 306 306 306 305 307 308 308 308 307 305 305 305 305 305 303 303 303 304 306 308 310 309 309 307 306 304 305 306 305 303 301 300 299 298 296 294 289 291 295 295 297 295 289 293 294 294 291 291 291 294 297 298 298 298 298
291 291 292 293 295 295 295 295 295 296 295 294 294 295 295 297 296 298 299 300 301 300 301 302 302 302 301 301 301 300 300 301 299 298 299 303 305 302 300 301 302 302 303 301 301 301 303 307 307 307 308 308 305 306 304 306 304 304 299 298 296 295 297 299 299 295 295 291 293 296 296 297 288 292 292 288 289 288 287 286 291 296 296 296 296
289 289 290 290 290 291 290 292 293 294 292 290 292 293 293 295 294 294 295 296 296 296 297 298 299 298 299 297 298 298 299 299 296 297 297 295 299 298 299 299 301 301 299 300 298 298 298 298 299 299 300 300 300 300 300 300 298 298 298 298 297 295 297 297 297 297 296 290 290 295 296 297 290 291 290 284 285 287 286 286 286 291 294 295 296
288 288 289 289 289 289 289 289 289 290 291 289 290 291 292 293 292 293 293 294 294 294 294 296 296 296 294 290 292 295 296 297 295 295 296 295 296 296 296 294 293 294 295 294 296 298 295 294 295 295 296 297 298 298 299 299 299 297 297 298 295 295 297 297 297 297 294 290 291 293 292 296 287 289 290 284 282 283 285 286 286 286 291 294 295
287 287 287 287 287 287 287 287 286 288 288 287 289 290 291 292 291 291 291 291 292 292 293 292 292 293 293 292 290 292 293 293 294 295 295 294 295 294 295 294 294 294 296 294 296 295 294 294 295 294 294 293 294 295 295 295 296 295 298 299 296 296 297 297 296 296 296 296 290 292 294 293 289 288 289 287 289 287 283 284 285 285 287 289 291
Wind_Speed
6 6 5 7 7 7 6 6 6 6 5 5 6 6 5 6 5 5 5 5 5 6 5 5 5 5 5 6 6 6 6 5 5 5 5 5 5 6 8 9 11 12 14 16 15 14 13 13 12 12 13 13 13 12 12 12 12 12 12 13 15 15 15 14 13 13 13 14 13 13 13 12 12 12 12 12 12 12 12 12 12 12 12 12 11
6 6 7 7 6 7 7 7 7 6 6 6 6 6 6 5 6 5 6 6 6 7 6 6 6 6 6 7 7 6 6 6 6 6 5 5 5 6 9 10 10 11 13 15 16 16 15 14 13 13 13 13 13 14 13 13 14 13 13 13 14 15 16 15 15 15 14 14 15 14 14 14 13 13 13 13 13 13 13 13 13 13 12 13 13
7 6 7 7 6 6 7 6 7 6 7 6 5 6 6 6 6 6 7 7 8 6 6 7 7 7 6 7 7 6 6 6 5 6 6 6 5 6 7 10 10 10 12 14 16 17 16 16 16 14 14 14 14 14 14 15 14 14 14 14 14 15 16 17 17 16 16 15 15 15 15 14 14 14 14 14 13 14 13 13 13 14 14 13 13
9 8 7 7 8 8 7 7 8 7 7 7 6 6 6 6 6 6 5 5 6 6 6 6 7 7 6 7 6 6 6 6 6 6 6 6 6 6 6 7 10 12 12 13 15 16 16 17 17 17 16 15 15 14 14 14 15 15 15 16 16 15 16 17 18 18 18 17 17 17 17 16 15 15 14 14 14 14 14 14 14 14 14 14 14
9 9 8 7 7 8 8 8 8 7 7 8 9 8 7 6 6 5 6 5 6 6 5 6 7 7 6 7 5 7 6 6 6 6 6 6 7 6 6 6 6 9 13 13 14 15 16 17 18 18 18 17 17 16 16 15 15 16 16 17 17 17 17 16 17 19 20 19 19 16 17 17 16 15 15 15 15 14 15 15 15 15 15 15 15
9 9 8 8 9 9 9 8 7 7 6 7 8 7 8 8 8 7 7 7 8 7 6 7 7 6 6 6 5 7 6 6 7 7 6 7 7 6 7 6 6 6 7 12 14 13 16 16 17 18 19 19 19 18 17 16 16 16 16 17 18 18 18 17 17 18 20 20 20 18 18 18 17 17 17 16 16 16 16 16 16 16 16 16 16
10 9 9 9 9 10 10 9 7 7 7 7 7 7 8 9 7 8 9 7 8 7 7 8 7 8 7 6 7 6 6 7 7 7 7 7 7 7 7 7 7 7 7 7 9 14 15 16 17 18 19 19 19 19 19 18 17 17 17 17 18 18 18 18 18 17 18 19 21 20 20 19 19 18 17 18 18 17 17 17 17 17 17 17 17
11 10 10 10 10 10 10 8 9 7 7 7 7 8 8 8 8 8 9 9 7 8 6 8 7 8 6 6 7 6 7 7 7 8 8 7 7 8 7 7 7 8 8 7 7 9 14 14 16 18 18 19 20 20 20 20 19 19 18 18 18 18 19 18 18 17 17 20 20 21 22 20 20 19 18 18 19 19 19 18 18 18 18 18 18
12 11 11 11 11 11 9 9 8 7 6 7 7 7 7 7 6 7 8 8 8 9 8 7 8 8 6 7 7 7 7 8 8 8 7 8 8 8 8 9 8 9 8 8 8 8 11 15 15 16 17 17 19 20 21 21 21 20 20 19 19 19 19 18 17 16 16 15 18 20 21 21 21 20 21 20 19 20 19 19 19 19 19 19 19
11 11 11 11 11 10 9 9 8 8 8 7 8 6 8 9 10 8 8 8 8 8 8 6 6 7 7 8 8 7 8 9 9 8 8 9 9 10 10 9 9 9 8 9 9 8 8 11 15 16 16 16 16 19 21 22 22 23 22 21 20 20 20 19 19 17 16 15 15 18 20 21 22 22 19 17 19 20 20 20 20 20 19 19 19
11 11 11 10 10 10 10 10 9 8 9 8 8 9 9 9 11 9 7 9 9 9 8 6 6 7 8 9 8 10 9 8 8 8 8 10 11 11 8 10 9 9 9 9 9 8 9 8 7 7 10 16 16 17 19 22 22 22 23 23 22 22 21 22 20 18 16 16 14 16 18 20 22 22 19 19 20 20 21 21 21 20 20 20 20
11 11 11 11 10 10 10 9 9 9 10 10 11 10 11 10 10 9 8 6 7 7 5 5 6 8 9 8 9 11 11 9 10 11 10 11 11 9 10 9 9 10 10 10 9 9 9 9 8 8 8 11 17 18 19 19 20 20 23 24 24 23 23 22 21 20 18 16 15 15 18 20 22 24 22 21 21 21 21 21 22 21 21 21 21
11 11 12 11 11 9 9 10 10 10 11 12 11 10 9 9 8 7 10 10 8 6 6 3 6 9 7 10 11 10 12 12 14 13 13 12 10 10 10 9 10 10 10 8 8 9 9 9 9 8 8 7 10 16 18 19 19 19 22 23 24 25 25 24 23 22 19 18 16 16 17 19 20 23 25 24 23 23 21 22 22 22 22 22 22
11 11 11 12 11 10 10 10 9 10 10 10 10 10 9 9 7 7 7 10 10 6 6 5 6 7 7 9 9 8 12 13 13 12 13 11 10 10 10 10 10 9 8 7 8 8 9 9 9 9 8 8 9 8 10 13 15 19 21 22 24 25 26 26 25 24 21 18 18 17 18 19 20 22 23 24 25 24 22 24 23 23 22 22 23
12 11 12 12 12 11 11 9 10 9 9 11 11 11 10 11 10 10 7 6 7 4 8 10 8 2 1 4 9 8 4 3 5 9 10 10 9 10 10 10 12 9 8 7 8 8 9 8 9 9 9 9 9 9 9 10 12 16 19 21 22 24 25 26 26 26 24 21 19 18 18 20 21 21 22 24 26 27 24 23 24 23 24 24 23
11 12 11 11 12 13 10 10 11 9 10 10 11 12 11 10 10 10 9 9 7 7 8 9 8 5 4 6 3 1 11 2 4 6 8 10 8 10 7 9 9 8 5 9 9 8 8 7 10 10 10 10 9 9 9 9 13 17 19 20 21 22 23 25 26 27 25 24 21 20 19 19 21 21 22 23 26 25 26 26 25 25 24 24 24
13 13 12 13 12 12 12 11 10 10 9 11 11 12 11 10 11 10 11 12 10 7 6 9 10 10 8 1 2 2 7 5 5 7 0 2 6 8 8 9 9 8 7 8 7 7 8 8 9 9 10 10 10 9 9 10 10 10 13 17 19 19 21 23 25 25 26 25 24 22 20 20 20 21 22 23 23 24 24 26 27 26 25 25 25
12 13 13 12 13 13 12 12 11 10 10 11 11 10 12 11 12 11 12 12 11 8 9 6 10 11 14 13 8 7 3 3 4 8 2 6 4 3 5 7 6 6 6 7 7 8 7 9 8 9 9 9 9 10 9 10 10 10 10 11 17 18 20 22 24 24 24 25 25 25 24 23 22 24 24 22 22 23 24 25 27 27 25 26 26
12 12 13 13 13 13 13 12 12 11 10 10 12 13 11 10 9 10 12 9 9 12 13 8 3 10 12 14 13 10 3 2 7 2 13 2 2 3 6 5 6 5 7 8 8 7 7 7 8 9 9 8 9 9 8 10 12 13 12 15 18 18 20 21 22 23 24 24 26 25 25 25 25 24 24 23 23 23 24 25 26 25 25 27 27
13 13 14 14 13 13 13 12 12 12 11 12 14 12 9 9 10 11 10 10 11 13 13 9 11 9 8 11 12 12 10 8 6 8 6 11 15 2 3 4 4 7 8 7 8 8 8 7 9 8 8 8 8 8 9 10 10 11 11 17 19 19 20 20 21 21 22 23 24 25 25 26 26 25 24 24 24 23 24 25 27 28 28 28 28
13 14 14 14 14 14 13 12 12 13 12 12 13 11 12 12 11 11 12 11 11 12 10 11 10 12 6 9 9 10 8 9 8 6 9 7 14 17 12 1 3 7 5 6 6 6 8 9 8 8 7 8 8 9 9 9 10 10 12 16 19 21 21 21 21 21 21 21 22 22 23 23 25 25 25 26 26 25 24 25 25 26 26 27 26
12 14 13 14 14 13 12 14 14 14 12 14 13 12 13 13 14 12 12 12 11 11 14 11 9 9 9 6 7 8 8 8 9 9 9 11 13 12 14 6 10 5 4 5 7 8 8 8 8 7 8 7 7 8 9 10 10 10 12 16 18 20 22 22 22 21 21 21 21 21 21 21 21 24 24 25 25 25 24 23 23 23 24 26 27
10 10 13 13 13 13 14 14 14 13 12 13 14 14 14 13 12 12 13 15 12 12 12 12 10 10 11 10 11 11 11 11 11 10 10 9 8 13 16 12 8 15 4 7 7 9 8 7 8 8 8 8 8 8 8 10 11 13 16 16 17 18 20 21 22 23 22 21 20 20 19 19 20 20 22 23 24 25 24 24 23 24 24 23 22
9 9 11 14 14 13 14 14 14 13 14 14 13 13 12 10 10 11 12 13 12 12 13 13 14 12 12 11 12 10 9 11 9 8 10 11 9 12 11 5 3 9 5 3 5 8 8 9 9 9 8 8 8 8 8 9 10 16 14 15 17 18 19 22 22 22 23 22 21 19 19 19 19 19 19 21 21 23 24 23 23 24 23 23 23
11 12 13 15 14 13 14 14 14 14 14 13 13 13 11 11 11 12 13 13 14 14 12 15 14 13 13 11 10 10 13 10 7 8 8 7 9 11 14 5 11 11 5 1 5 2 8 9 9 9 9 8 8 7 8 8 9 12 14 11 17 17 18 19 21 22 22 22 22 21 20 19 20 20 20 20 21 21 21 21 21 22 22 22 22
12 14 15 14 12 14 13 13 14 13 14 14 13 12 12 11 12 12 14 14 12 13 15 15 13 14 11 10 12 12 12 9 9 8 9 8 10 12 12 5 5 9 6 3 1 3 5 5 7 8 6 7 8 8 8 9 9 11 12 10 12 16 17 18 18 21 22 23 23 22 21 19 20 20 19 21 21 21 20 20 20 20 21 22 22
13 13 10 11 13 11 13 14 14 14 13 13 12 12 12 11 11 13 12 11 12 12 13 15 14 15 14 13 12 11 12 10 9 11 9 11 11 10 7 11 10 7 10 5 5 9 15 3 5 6 8 8 8 8 9 6 8 10 10 9 9 12 14 18 20 20 20 22 24 24 22 20 20 22 21 19 20 21 23 24 23 22 21 22 23
10 10 11 11 12 13 13 13 13 13 13 13 13 12 12 12 12 12 14 10 12 14 14 14 15 16 15 13 11 13 11 10 10 11 10 10 10 8 8 9 11 15 8 11 6 11 5 7 3 8 8 8 7 7 7 6 7 10 10 7 7 8 13 16 21 21 20 19 22 24 23 21 23 23 22 19 18 19 19 19 21 21 19 18 18
11 10 11 11 11 11 12 13 13 13 13 13 13 12 12 12 12 13 14 13 12 14 13 13 14 14 13 14 14 12 12 10 10 10 10 10 10 10 10 11 10 11 11 13 12 10 2 7 3 3 6 5 7 6 6 6 8 8 5 6 8 7 10 15 17 18 19 20 21 23 23 23 24 24 22 20 19 18 18 18 18 18 19 19 19
11 10 10 11 11 12 12 12 12 12 13 13 13 13 12 11 13 14 14 12 12 11 12 13 14 12 12 12 12 12 11 10 11 10 10 11 10 11 10 11 10 13 12 14 16 7 9 3 6 4 2 6 6 6 6 6 9 8 5 6 7 7 11 15 17 18 18 19 19 21 23 24 24 23 21 21 20 19 19 19 18 19 19 20 21
11 12 11 11 11 11 12 12 12 13 13 13 12 12 12 12 12 13 13 12 12 12 13 13 12 11 13 14 12 12 10 11 10 10 10 10 11 10 11 10 11 13 13 12 13 12 7 11 6 6 6 5 5 6 4 6 7 8 6 6 7 10 13 11 15 15 16 18 19 19 21 23 23 23 22 22 21 21 21 20 19 18 20 22 22
11 11 11 10 12 12 11 12 12 12 12 12 12 12 12 12 12 12 12 13 13 14 14 12 10 11 13 14 13 12 10 10 10 10 10 11 11 11 11 11 12 12 12 12 14 17 9 10 8 5 7 6 5 6 7 6 7 9 6 7 8 9 7 8 12 14 15 16 18 17 19 19 20 22 23 23 23 23 23 23 22 22 23 20 18
11 11 11 12 12 12 12 12 13 12 12 12 11 11 12 13 12 13 12 12 14 13 13 14 12 12 13 13 13 13 11 11 10 10 10 11 11 11 11 11 12 11 12 12 14 15 11 10 9 10 7 6 5 7 8 6 6 5 6 7 5 5 6 7 8 11 14 15 16 17 18 18 18 19 20 20 21 22 22 22 21 21 18 16 14
10 13 12 12 11 12 12 13 13 13 12 13 12 11 12 13 14 12 12 13 13 14 13 14 13 11 11 13 13 13 12 13 11 11 11 11 11 11 11 12 12 12 12 12 13 12 15 9 10 5 8 6 9 6 9 8 8 6 7 7 6 6 6 7 7 8 12 15 16 17 17 17 17 18 18 18 18 18 18 18 17 16 15 13 10
10 11 12 12 12 12 12 12 12 12 13 13 12 12 13 14 15 14 13 13 14 14 14 15 13 12 12 13 13 12 10 11 12 12 12 12 11 13 13 11 12 12 12 13 12 13 13 12 9 11 7 5 9 8 7 8 10 9 8 8 8 6 7 7 7 7 10 13 16 17 16 16 17 17 17 17 16 16 16 16 15 13 13 12 12
11 10 10 11 10 11 12 12 12 12 12 12 12 12 13 14 14 15 13 13 13 14 14 14 13 12 13 12 13 12 11 12 11 11 11 11 11 11 12 11 12 13 12 12 13 12 11 12 8 11 7 8 8 7 7 7 8 7 7 8 6 5 5 6 7 7 9 12 14 14 14 15 16 16 17 16 16 15 16 15 15 14 14 13 12
10 7 8 8 10 11 12 12 13 13 13 12 13 12 12 12 14 13 13 13 13 14 14 13 13 12 12 12 12 11 11 13 11 11 10 12 12 10 11 10 11 11 10 11 12 11 12 13 10 8 7 7 8 5 5 7 6 6 4 6 7 7 7 6 4 6 9 11 12 13 13 14 16 16 16 16 17 17 16 16 15 14 14 13 13
8 8 9 9 10 11 12 12 12 12 12 12 12 13 13 12 12 12 12 12 12 12 12 12 12 12 12 12 12 11 12 13 12 11 11 13 11 11 11 10 10 10 11 11 10 11 12 13 11 11 7 10 7 6 5 7 6 7 5 7 4 5 6 5 6 7 6 6 7 8 10 13 15 16 16 17 18 17 17 17 16 16 15 14 14
8 9 9 10 9 10 11 11 12 12 11 11 11 11 11 11 12 12 12 12 11 11 11 12 12 12 12 12 12 12 13 13 13 12 12 12 11 12 12 11 11 11 11 11 10 11 12 12 11 11 10 9 9 10 7 7 8 8 9 8 7 5 6 8 9 7 6 8 10 12 11 11 12 11 13 16 16 17 17 17 16 17 16 16 16
8 8 8 9 8 8 10 10 11 10 10 10 10 10 10 10 10 11 11 12 11 11 11 11 11 12 12 12 12 12 13 13 12 12 12 12 11 12 10 10 11 12 12 11 10 11 11 11 11 10 9 10 8 7 1 2 4 4 5 7 10 7 9 8 10 10 8 8 9 9 9 10 10 11 11 13 16 16 16 15 16 16 17 16 15
7 7 7 7 7 8 8 8 8 7 9 10 9 9 10 10 10 11 12 12 12 12 12 12 11 12 11 11 12 12 13 15 17 15 14 14 11 11 11 11 11 11 11 10 10 10 10 10 10 6 7 7 7 7 7 6 8 12 7 8 9 7 8 8 8 8 8 8 8 6 8 8 10 9 9 9 10 14 13 15 13 16 16 14 13
5 5 6 6 7 8 8 8 7 7 8 8 10 15 13 10 10 10 10 11 11 11 11 11 11 11 11 11 12 17 18 18 19 19 18 17 17 14 11 10 12 11 11 10 10 10 11 12 12 11 12 11 10 9 10 11 9 5 3 5 8 7 6 9 8 6 8 7 7 8 9 7 8 8 6 8 9 9 8 9 10 11 15 19 17
5 5 6 7 7 6 7 7 7 8 7 7 12 13 14 16 12 10 11 11 11 11 11 11 11 10 10 11 11 13 15 16 16 20 20 20 19 18 19 17 15 13 12 12 12 12 12 12 11 11 12 12 11 9 9 9 8 9 9 6 9 5 7 8 11 3 6 10 9 8 11 10 10 11 11 11 9 8 8 10 14 17 18 17 18
5 4 5 6 6 5 5 6 6 7 7 10 13 14 15 16 15 11 10 9 9 10 10 10 10 10 10 10 10 10 10 12 11 13 16 20 21 21 20 20 20 18 15 12 10 10 10 10 10 11 11 12 11 8 9 6 6 5 7 8 9 9 10 9 8 9 5 11 10 10 12 5 8 11 10 9 8 8 9 12 16 17 17 17 18
2 3 5 5 5 4 4 5 6 6 6 7 10 11 12 12 14 12 9 9 9 9 9 10 10 10 9 10 10 9 9 15 13 10 9 10 15 21 22 21 19 20 20 20 17 13 9 11 11 11 10 9 9 7 6 7 6 9 7 9 7 8 10 11 12 10 8 10 6 5 11 6 9 8 10 9 8 8 10 13 18 18 18 19 19
3 3 3 4 4 4 4 5 5 4 5 7 9 9 10 12 13 12 9 9 9 9 9 9 9 9 10 9 9 9 8 9 9 12 11 11 9 8 10 11 12 15 17 20 22 22 18 14 13 14 9 6 11 6 7 6 7 8 7 11 8 10 10 14 15 11 0 9 10 6 9 3 6 7 11 9 8 8 9 13 19 19 19 19 18
3 3 4 4 5 5 5 5 5 5 5 6 8 9 10 11 12 11 7 7 7 7 7 7 7 8 8 8 7 7 5 6 6 8 8 9 9 9 9 10 11 12 11 11 11 12 13 14 14 15 12 9 10 8 7 7 10 9 9 11 9 10 9 7 6 1 3 5 7 5 11 3 7 7 11 8 6 8 6 11 16 17 18 19 18
1 1 2 2 4 4 3 3 3 3 1 7 6 5 2 4 6 5 5 4 4 4 4 2 1 1 2 3 3 3 3 4 4 7 8 5 5 5 7 6 6 6 7 9 12 12 12 11 11 11 10 10 12 9 7 7 7 7 7 7 4 4 6 10 12 2 6 5 8 9 6 9 5 8 5 1 3 6 5 6 11 16 15 17 18
2 2 3 3 3 3 4 4 1 1 3 7 9 8 8 8 5 1 2 3 3 3 3 2 1 1 1 2 2 2 1 0 1 4 4 1 2 4 6 7 7 6 6 7 11 14 14 15 15 15 14 13 12 12 11 10 6 4 4 5 7 4 7 11 12 7 7 6 7 9 7 12 4 7 4 0 2 5 4 6 5 11 15 16 16
2 4 3 4 3 4 4 4 3 2 3 6 9 8 8 8 6 2 1 0 1 1 1 1 0 0 2 5 4 2 1 0 3 4 4 3 3 3 4 4 5 6 6 4 4 5 8 10 12 13 14 14 16 17 15 14 13 8 6 11 5 5 10 9 12 9 4 6 8 11 5 10 3 3 3 2 2 4 5 6 6 6 10 13 18
4 4 3 4 4 4 4 4 5 4 3 5 7 7 8 7 5 3 3 1 2 2 1 2 2 4 4 4 4 3 2 3 5 4 4 2 3 3 3 4 6 7 6 4 5 5 5 5 6 5 6 7 8 7 8 12 14 12 10 11 5 6 10 10 9 8 10 8 8 13 9 4 5 4 5 1 5 3 2 3 5 5 5 6 8
Wind_Direction
207 209 208 216 196 200 209 220 208 202 208 210 215 225 229 233 221 223 216 227 224 231 238 240 239 249 253 267 263 262 259 253 250 254 254 254 255 255 251 248 248 250 249 250 253 256 257 256 252 249 246 244 245 238 227 233 240 247 249 235 238 233 226 217 218 210 218 225 221 220 217 216 215 218 219 219 218 215 211 211 212 210 211 211 213
217 208 209 220 213 201 206 214 219 203 197 221 213 216 226 230 236 227 238 239 238 240 234 235 236 243 245 252 258 257 256 257 257 252 251 250 250 251 254 252 250 246 246 248 249 251 255 256 257 253 251 251 248 250 248 232 233 243 248 245 231 236 233 227 222 218 214 220 226 225 221 217 216 217 220 221 221 218 216 215 216 217 216 215 217
225 220 214 215 216 216 214 205 218 214 199 208 210 218 220 225 223 229 231 234 240 245 239 245 247 246 241 242 250 255 258 256 258 259 259 253 246 247 254 255 250 248 246 244 245 247 249 254 255 255 253 250 248 249 251 255 246 235 246 251 248 235 238 234 230 224 222 223 227 229 227 223 220 219 219 220 222 222 220 219 220 221 221 220 220
217 220 224 219 219 217 217 208 216 214 208 202 206 215 225 228 226 229 239 238 243 239 237 240 244 242 237 240 243 247 252 253 254 255 256 258 255 249 248 251 249 249 247 245 243 242 244 247 251 255 255 254 253 250 248 249 253 252 244 244 250 245 234 239 237 233 225 222 222 226 229 227 224 223 223 222 222 223 223 222 222 222 224 224 224
216 219 219 224 222 220 221 220 220 214 208 208 209 213 220 229 237 224 232 231 235 239 231 234 242 244 235 238 231 241 241 246 249 252 252 253 252 251 251 246 247 248 247 245 243 241 240 242 246 250 252 253 253 252 252 249 248 249 250 249 248 251 248 239 240 239 235 228 229 226 228 231 230 227 226 227 226 223 224 224 225 225 225 227 226
216 219 220 226 231 234 231 226 218 214 210 204 211 210 224 225 229 230 232 229 226 238 233 243 244 243 240 239 229 237 236 239 241 243 245 247 246 247 247 248 246 243 245 245 242 239 240 241 244 245 248 250 252 254 252 250 249 249 249 247 248 249 250 245 231 234 236 236 231 223 223 229 231 233 233 231 229 227 226 227 226 227 227 228 229
214 217 220 225 231 234 234 234 225 218 215 210 212 216 218 225 225 229 232 224 237 239 233 243 246 243 241 234 240 238 236 241 243 245 242 246 242 243 239 241 243 242 239 238 244 241 238 240 242 244 245 244 245 247 250 251 251 250 248 249 247 247 248 247 246 235 234 236 237 233 222 221 227 229 230 232 231 229 228 228 228 228 229 230 231
215 214 223 222 227 232 232 231 226 222 221 212 210 220 224 229 222 220 232 229 232 240 229 244 244 250 245 240 244 239 242 245 246 246 245 246 245 246 238 236 234 237 236 235 237 237 235 234 237 241 242 244 243 242 245 248 248 247 248 249 251 252 250 249 248 247 236 234 235 236 231 223 221 227 226 230 231 231 229 230 230 230 230 231 233
211 211 219 224 226 229 231 227 222 224 216 213 212 214 218 224 229 217 222 238 229 239 235 233 246 250 248 244 244 240 241 242 244 244 247 245 247 245 245 240 235 234 236 237 236 238 237 232 235 235 240 242 242 242 243 245 246 246 246 247 247 248 250 251 253 251 252 241 237 240 237 233 224 221 220 232 228 231 231 230 232 231 232 232 234
211 211 218 224 226 229 229 223 219 222 223 213 219 212 220 224 236 221 216 230 240 239 244 234 237 246 248 244 248 242 244 244 244 243 240 248 243 243 241 241 236 233 231 233 235 238 236 236 233 236 237 239 241 242 242 242 244 246 245 245 246 247 248 249 249 249 246 247 231 237 243 238 234 229 232 221 221 227 231 232 233 234 233 234 235
212 211 216 219 224 227 227 219 216 222 225 225 225 221 221 220 227 230 211 222 233 239 243 240 242 244 249 250 247 246 248 242 246 245 242 243 246 247 243 238 234 235 233 229 233 232 234 235 232 229 234 235 238 239 241 241 242 243 245 246 246 247 247 249 249 249 245 242 234 222 231 237 238 237 219 221 221 225 230 231 232 233 234 234 235
212 212 216 217 222 224 225 217 216 217 221 224 225 220 222 222 227 227 233 226 226 239 236 244 257 255 257 260 249 252 252 246 245 244 245 244 246 244 243 241 234 235 231 230 230 228 230 231 231 229 228 233 234 237 239 239 240 241 242 243 246 246 247 249 250 249 249 244 238 221 222 230 235 235 229 221 221 224 227 229 230 230 231 232 233
213 212 216 219 223 223 221 221 216 218 222 227 226 227 220 217 222 211 225 238 235 207 225 202 265 271 257 261 266 249 251 245 246 244 241 243 244 243 243 242 238 238 232 230 227 225 225 227 228 227 226 227 234 235 236 238 238 238 239 241 242 244 247 248 250 252 249 246 242 233 226 229 233 234 236 236 231 234 231 228 229 229 228 230 232
212 211 216 216 219 220 221 220 214 223 227 233 231 228 220 214 204 226 208 226 243 185 189 152 230 250 303 296 279 265 239 238 242 243 242 242 239 240 242 240 242 237 239 231 229 223 224 226 228 228 226 225 228 229 234 237 240 238 239 239 239 241 244 246 248 249 251 248 243 240 237 235 236 237 234 238 236 232 228 223 227 229 230 233 236
210 208 215 217 220 219 222 217 218 217 225 230 229 229 222 219 207 219 223 216 237 187 183 182 241 161 236 352 299 339 336 298 265 256 249 245 235 234 235 237 240 233 232 229 234 227 228 226 230 228 229 226 225 226 229 232 229 231 233 235 237 238 241 243 246 247 247 248 247 243 238 240 242 241 238 237 239 244 238 221 225 228 231 234 235
209 211 215 217 217 220 220 217 220 213 220 228 227 231 223 222 217 219 218 239 212 222 186 191 204 137 276 213 252 104 311 301 310 276 225 236 225 235 229 237 234 235 215 229 231 230 230 223 227 228 229 228 225 226 229 231 232 233 233 234 235 236 238 240 243 246 247 247 247 247 244 239 242 242 242 238 239 240 238 229 228 231 230 229 236
212 212 212 218 217 220 218 220 218 214 215 226 228 229 225 224 218 218 211 224 238 223 202 195 203 198 203 167 278 291 233 277 330 267 42 201 237 224 228 227 231 225 218 232 230 230 229 227 227 226 230 226 227 226 229 232 236 237 238 237 237 236 237 238 240 243 245 247 247 246 245 245 243 242 241 242 243 241 237 233 234 236 236 234 235
212 213 214 215 218 219 219 219 219 217 214 222 229 229 224 219 217 218 225 221 232 233 234 194 207 202 216 226 208 216 249 251 23 293 320 215 217 201 234 231 235 223 227 231 227 231 225 231 224 230 227 227 226 227 226 229 231 233 233 235 232 232 234 236 238 240 242 244 247 247 248 247 245 246 248 246 244 240 237 239 242 242 241 239 238
216 214 216 215 219 218 218 218 220 220 217 219 227 226 223 219 214 213 223 218 213 234 233 214 198 224 217 225 236 246 206 302 257 20 306 326 237 222 234 236 224 226 231 231 228 234 234 228 231 229 228 224 226 226 225 230 230 232 227 231 232 232 232 232 233 236 239 241 244 246 247 249 249 247 248 246 244 243 240 237 237 239 238 241 244
215 215 217 217 217 220 217 217 218 220 215 220 227 226 219 220 210 216 217 212 212 224 235 214 207 231 201 225 231 240 240 240 231 248 271 298 289 249 248 250 225 228 225 226 229 228 237 231 233 230 228 225 223 222 226 227 229 231 233 232 235 234 233 231 229 230 234 238 242 245 246 247 248 249 247 246 246 242 242 240 238 238 238 239 241
212 215 215 216 217 220 216 217 219 220 214 225 227 222 218 218 212 211 213 216 214 224 231 229 213 234 171 225 224 233 231 234 235 187 230 243 270 285 276 277 275 251 231 236 238 234 230 237 234 233 230 230 220 225 226 228 228 229 231 229 232 235 235 233 229 227 227 231 237 240 243 247 248 250 251 250 250 248 245 245 244 243 244 246 246
213 215 215 217 219 217 217 219 221 221 218 223 225 222 220 219 216 212 212 217 215 216 223 229 220 228 209 213 209 226 225 223 217 211 223 215 249 268 281 286 293 257 202 227 237 232 236 235 239 235 234 231 224 225 227 228 229 228 229 226 229 233 235 234 232 229 225 226 229 235 237 242 247 249 254 254 251 252 251 249 248 250 248 246 246
212 213 216 217 219 216 215 219 220 220 220 222 222 221 221 219 217 213 214 215 216 217 223 229 225 225 222 213 224 215 213 216 216 207 203 223 224 254 268 269 242 288 230 222 223 233 228 227 234 234 230 230 228 223 227 229 230 230 229 222 226 230 233 235 234 231 228 225 224 229 232 235 241 246 251 256 256 252 250 251 250 249 249 246 247
210 213 216 216 215 216 215 219 221 219 221 222 224 223 222 217 215 213 218 217 218 216 221 225 220 225 227 220 226 224 228 227 222 198 207 226 219 250 259 285 290 229 278 287 258 250 238 231 231 232 226 230 229 221 228 232 233 232 228 228 227 228 230 233 235 234 231 227 225 223 226 229 232 237 241 248 254 255 252 250 251 251 251 252 251
211 215 218 214 212 214 213 215 218 217 222 221 224 221 218 217 217 218 218 216 215 214 220 224 219 218 227 223 227 224 229 228 208 207 220 214 216 245 254 252 260 281 272 137 279 278 238 234 232 227 227 228 233 224 227 228 235 229 223 234 228 231 232 235 238 237 233 232 230 227 226 228 231 233 234 236 242 249 253 253 251 252 253 250 250
215 217 218 214 212 215 215 218 220 219 218 222 222 220 216 217 218 220 220 222 217 215 222 227 223 225 224 224 222 226 231 220 214 211 213 201 223 227 257 259 220 264 286 268 280 310 277 224 229 230 229 234 236 230 232 232 236 238 222 228 236 231 231 233 236 239 238 236 235 233 231 230 233 236 235 235 237 240 245 251 254 252 252 252 253
219 224 219 214 216 214 215 218 218 219 218 219 221 219 216 218 220 223 225 222 218 217 224 223 225 224 222 221 227 225 230 217 213 220 211 216 221 224 218 257 270 240 263 255 263 219 256 263 221 223 224 232 228 233 233 233 239 237 218 226 241 232 227 231 236 237 238 240 241 239 237 233 234 238 239 238 240 243 246 249 251 253 253 253 255
225 221 219 212 213 213 213 218 219 219 218 219 218 216 215 216 220 223 227 219 220 216 224 223 226 225 224 223 224 231 227 219 214 219 216 217 219 220 205 223 248 276 268 272 257 267 202 233 290 224 219 219 232 230 237 233 244 236 221 228 234 234 225 229 236 239 237 238 240 241 239 235 236 237 239 238 237 238 240 244 247 251 252 254 255
226 218 221 214 214 211 212 216 217 218 218 218 217 216 213 214 218 222 225 221 219 220 224 223 225 224 225 220 223 230 228 220 216 216 218 215 218 217 211 218 225 240 266 274 264 264 279 193 217 284 213 218 227 228 223 228 236 231 223 226 236 237 226 228 233 235 235 237 238 239 238 237 237 237 236 236 235 236 236 237 238 241 246 250 253
222 222 219 215 212 209 214 214 216 215 217 217 216 216 213 215 219 224 226 222 220 223 226 225 227 223 225 222 224 230 228 222 218 216 212 215 214 216 216 221 215 227 238 252 268 241 269 198 214 248 221 221 221 233 215 227 234 221 222 231 235 238 234 232 236 236 236 238 238 238 238 237 236 233 232 234 235 235 234 235 235 238 241 246 252
222 222 217 216 211 212 211 215 214 215 215 217 214 216 211 217 217 225 224 220 220 222 226 225 227 224 225 226 224 231 225 225 220 217 215 211 216 215 219 218 220 224 233 244 260 255 226 266 239 211 231 219 213 223 226 227 231 205 212 225 238 239 239 244 244 243 240 239 239 237 237 236 235 234 232 232 232 233 234 235 236 238 244 250 254
226 221 221 215 214 212 211 214 216 214 213 215 212 214 212 218 218 223 223 217 221 223 228 224 225 222 227 228 226 229 226 226 221 219 219 214 215 216 217 219 223 221 229 236 241 259 242 257 263 247 206 228 209 214 231 231 232 210 211 217 228 238 241 247 249 241 239 239 238 237 236 236 235 235 234 234 235 235 236 238 239 243 247 249 252
220 222 219 218 216 215 212 213 214 214 213 213 211 212 213 218 220 224 224 219 221 225 228 231 224 224 226 228 228 229 224 225 220 220 221 220 214 217 218 220 224 221 220 230 241 255 258 249 255 258 242 194 242 211 232 229 236 221 219 229 220 213 234 243 247 244 238 238 238 236 235 233 234 234 234 233 234 235 235 237 237 240 240 241 244
213 222 217 218 217 215 214 215 214 215 215 214 211 209 212 215 222 222 224 221 223 226 225 233 226 225 226 227 229 228 223 224 221 220 222 222 219 217 217 216 222 221 216 227 238 247 257 251 260 223 251 179 245 188 218 215 236 226 221 229 217 205 221 243 245 245 236 236 238 238 237 236 236 235 235 233 232 230 229 229 228 230 232 233 234
217 219 217 217 217 214 217 217 215 215 215 215 212 210 212 214 219 221 221 219 223 223 225 230 227 225 225 225 229 226 224 225 221 223 221 223 219 221 221 215 222 223 221 221 232 242 248 253 246 256 229 226 225 237 214 217 227 214 219 228 228 213 214 226 242 250 241 234 237 240 238 238 240 240 239 238 235 233 231 230 228 225 224 223 226
223 221 217 218 216 216 217 218 217 218 216 216 214 213 213 214 220 222 220 221 222 224 226 229 227 224 225 225 227 223 224 226 223 222 222 224 222 225 224 219 222 226 224 225 225 238 242 254 232 242 228 232 239 242 225 223 223 222 219 228 231 229 228 219 224 243 246 239 238 240 240 241 242 241 239 236 233 230 230 227 225 224 224 224 225
229 219 219 215 219 216 218 217 218 218 217 214 215 215 216 217 221 222 222 222 223 225 226 227 226 225 226 226 226 222 223 229 227 222 220 223 225 224 224 221 223 226 229 226 230 230 240 244 250 236 237 230 240 238 205 226 236 237 244 236 227 224 236 240 227 237 253 252 243 241 237 239 240 239 238 236 232 229 226 225 223 223 223 223 224
230 224 219 213 216 219 219 220 219 221 218 217 216 216 215 217 220 222 223 224 225 224 226 227 226 225 226 226 225 222 223 227 228 224 223 227 224 224 224 224 223 226 229 229 229 232 236 243 242 251 229 244 247 233 208 211 218 234 248 249 254 241 237 256 240 239 235 235 237 236 239 240 240 236 235 236 234 229 224 221 220 219 221 221 221
230 225 222 219 217 218 221 218 221 220 219 217 217 218 218 218 218 220 223 226 227 225 225 224 225 225 226 226 225 221 225 226 229 226 223 225 222 226 222 222 223 226 230 230 227 231 233 241 240 236 242 237 238 253 225 209 216 217 227 244 246 235 227 217 245 242 230 241 241 240 239 233 224 224 231 237 238 235 229 225 222 220 221 220 219
238 234 228 223 224 216 224 219 224 218 220 218 217 217 218 216 216 220 220 224 226 226 225 224 223 224 224 225 224 223 224 226 228 229 221 224 221 228 222 221 223 225 230 229 229 231 235 237 239 236 228 236 232 244 105 141 223 272 238 219 237 224 230 221 218 224 229 219 241 239 241 251 252 239 235 235 236 235 231 231 228 227 225 224 221
248 244 241 233 228 228 229 227 227 220 220 222 215 211 212 215 215 219 219 221 222 224 225 225 223 223 224 224 224 224 222 226 226 227 223 219 220 226 224 218 223 224 230 228 230 232 239 243 250 244 251 245 236 236 233 214 213 233 212 202 233 229 242 248 241 224 229 232 238 232 242 223 236 232 221 229 230 227 228 225 231 230 228 225 218
260 256 251 244 235 230 229 229 228 225 228 225 222 214 210 211 213 219 221 222 222 224 226 226 226 223 223 223 225 221 221 220 224 227 229 227 224 224 224 215 221 223 227 229 230 229 234 235 235 231 234 235 226 216 229 228 226 231 198 193 231 227 231 250 264 222 217 221 240 244 239 223 228 244 225 235 236 213 215 216 221 220 222 224 221
269 262 251 249 244 239 232 229 226 228 231 228 223 220 218 214 215 219 220 223 220 223 223 224 225 222 223 224 225 221 221 223 223 225 225 227 228 230 234 230 220 215 222 225 226 222 225 231 232 228 232 238 230 217 218 230 223 210 213 206 232 227 226 244 259 275 216 190 215 227 244 210 203 229 223 225 222 214 213 219 219 220 222 222 223
270 283 274 256 254 247 243 239 236 232 233 228 224 225 222 221 217 222 224 224 222 222 222 222 225 222 224 224 225 224 222 219 220 224 227 227 227 229 231 235 238 237 234 224 229 234 233 238 239 234 235 238 240 218 226 214 233 225 222 216 218 219 233 236 245 244 215 182 211 219 248 182 201 227 239 228 216 216 214 221 224 226 228 228 227
268 273 260 265 262 262 253 251 247 244 245 242 242 240 238 233 228 224 233 229 225 224 221 221 221 222 222 225 227 225 227 218 220 226 226 228 230 230 231 234 237 237 241 243 243 243 237 239 244 248 233 243 249 231 202 205 200 224 218 229 227 227 230 235 241 243 228 190 200 240 259 214 184 217 236 228 214 214 218 220 226 225 225 226 224
218 242 256 258 265 262 247 243 250 255 253 257 247 241 237 235 232 224 230 229 228 226 222 220 220 222 221 224 228 229 225 216 214 219 225 230 232 229 233 234 235 238 238 238 240 244 242 243 245 247 236 203 243 233 214 197 200 221 216 235 217 232 233 234 236 240 75 144 190 212 262 197 186 206 237 231 205 219 212 217 222 222 223 223 221
196 220 237 244 247 243 240 230 231 236 243 251 240 238 233 233 237 231 238 238 238 235 229 221 222 221 223 227 231 235 231 225 220 215 223 227 228 228 223 221 222 228 230 234 237 237 240 239 242 248 250 236 241 234 215 202 214 223 220 234 226 231 253 282 303 220 186 197 183 173 253 207 184 203 237 223 208 225 214 226 224 223 222 221 218
280 259 281 253 261 261 267 253 232 242 21 41 43 28 343 265 242 223 229 240 245 257 257 268 251 235 220 223 225 225 224 227 238 229 229 237 239 238 242 247 243 237 237 235 235 236 237 242 244 248 249 248 252 252 235 218 217 228 238 249 243 233 254 256 261 193 226 182 192 184 240 253 166 207 242 151 195 229 216 223 228 227 217 215 211
25 23 13 19 17 23 29 23 35 63 57 26 30 27 22 18 30 69 161 183 200 214 225 205 181 156 129 115 116 123 132 136 74 50 25 30 248 244 244 244 246 242 241 239 240 242 243 246 251 254 258 261 264 271 274 268 262 241 254 259 245 194 236 256 261 244 241 160 209 201 220 259 162 196 234 18 232 240 211 223 222 227 222 218 216
37 35 23 33 34 40 40 41 15 11 1 8 14 15 22 17 10 359 16 91 230 227 268 273 235 64 63 59 60 66 45 342 27 357 339 347 282 253 251 256 266 264 265 280 292 275 256 253 253 254 254 255 257 257 255 250 245 226 210 244 218 164 237 243 260 263 261 192 199 179 186 241 118 193 200 261 278 233 219 220 207 217 223 221 217
61 30 31 38 25 23 17 12 10 18 357 0 2 7 15 9 5 13 29 32 330 303 338 327 1 3 346 352 357 339 312 277 273 263 253 229 257 253 265 269 265 261 258 239 256 274 283 290 282 282 280 268 262 258 257 253 248 240 228 240 222 207 242 249 248 271 280 248 168 171 200 231 159 214 161 59 273 223 167 197 201 200 204 200 200